This demonstration page uses our WeatherBlox Daily Observations layout. Learn more.

Left ArrowRight Arrow

36.17497, -115.13722

Hourly Observations for July 9, 2021

Temp ( °F °C ) Dew Point ( °F °C ) Humidity (%) Winds ( mph kmh ) Pressure ( in mb ) Visibility ( mi km ) Precip ( " mm )
12:53 am 00:53 Clear 98 36.7 54 12.2 23 23 NW 3 6 29.71 1006 10 16 0.00 0.00
1:53 am 01:53 Clear 98 36.7 53 11.7 22 22 Calm 29.72 1006 10 16 0.00 0.00
2:53 am 02:53 Clear 96 35.6 49 9.4 20 20 Calm 29.72 1006 10 16 0.00 0.00
3:53 am 03:53 Clear 94 34.4 49 9.4 21 21 Calm 29.73 1007 10 16 0.00 0.00
4:53 am 04:53 Clear 95 35 50 10 22 22 NNW 9 15 29.75 1008 10 16 0.00 0.00
5:53 am 05:53 Sunny 93 33.9 47 8.3 21 21 NNW 8 13 29.77 1008 10 16 0.00 0.00
6:53 am 06:53 Sunny 93 33.9 48 8.9 21 21 NNW 7 11 29.79 1009 10 16 0.00 0.00
7:53 am 07:53 Sunny 96 35.6 52 11.1 23 23 N 8 13 29.82 1010 10 16 0.00 0.00
8:53 am 08:53 Sunny 101 38.3 55 12.8 22 22 ENE 7 11 29.83 1010 10 16 0.00 0.00
9:53 am 09:53 Sunny 104 40 52 11.1 18 18 ESE 5 7 29.83 1010 10 16 0.00 0.00
10:53 am 10:53 Sunny 107 41.7 51 10.6 15 15 Calm 29.83 1010 10 16 0.00 0.00
11:53 am 11:53 Sunny 109 42.8 51 10.6 15 15 E 6 9 29.82 1010 10 16 0.00 0.00
12:53 pm 12:53 Sunny 111 43.9 49 9.4 13 13 VRB 3 6 29.80 1009 10 16 0.00 0.00
1:53 pm 13:53 Sunny 113 45 47 8.3 11 11 ESE 9 15 29.78 1008 10 16 0.00 0.00
2:53 pm 14:53 Sunny 116 46.7 45 7.2 9 9 S 8 13 29.75 1008 10 16 0.00 0.00
3:53 pm 15:53 Sunny 116 46.7 44 6.7 9 9 VRB 5 7 29.73 1007 10 16 0.00 0.00
4:53 pm 16:53 Sunny 114 45.6 46 7.8 10 10 WNW 15 24 29.72 1006 10 16 0.00 0.00
5:53 pm 17:53 Sunny 117 47.2 43 6.1 8 8 VRB 7 11 29.70 1006 10 16 0.00 0.00
6:53 pm 18:53 Sunny 114 45.6 43 6.1 9 9 Calm 29.71 1006 10 16 0.00 0.00
7:53 pm 19:53 Sunny 113 45 42 5.6 9 9 SW 3 6 29.72 1006 10 16 0.00 0.00
8:53 pm 20:53 Clear 110 43.3 45 7.2 11 11 WSW 6 9 29.73 1007 10 16 0.00 0.00
9:53 pm 21:53 Clear 105 40.6 48 8.9 15 15 NNW 6 9 29.75 1007 10 16 0.00 0.00
10:53 pm 22:53 Clear 106 41.1 47 8.3 14 14 SSW 6 9 29.74 1007 10 16 0.00 0.00
11:53 pm 23:53 Clear 101 38.3 48 8.9 17 17 WNW 7 11 29.74 1007 10 16 0.00 0.00

Powered by AerisWeather